NUSANTARA SATU

Last updated on Wed Sep 09 2026 00:03:02 GMT+0000 (Coordinated Universal Time)

1 44048U 19009A 26251.47402661 -.00000256 00000+0 00000+0 0 9997 2 44048 0.0272 131.2062 0004598 17.3564 155.6225 1.00270331 27608
UTC large
Height (km)
Speed (km/s)
/
Latitude / Longitude
Inclination (degrees)
Orbital Period (minutes)
Azimuth
Elevation
Range (km)
Doppler Factor

Next 0 passes for location: London (51.5072 / 0.1276)

No passes found over London.
NUSANTARA SATU